Погода в Чантхабури

Таиланд     12°38′05″N   102°05′49″E
В апреле 2022 года жителям России запретили посещать сайт meteo.paraplan.net по решению Генеральной прокуратуры. Аудитория сайта уменьшилась в 10 раз. Владельцы сайта не видят смысла в поддержке погодного сервера в таких условиях. Сайт будет закрыт в октябре.
темп.,
°C
ветер,
м/с
пор.,
м/с
влажн.,
%
обл.,
%
осадки,
мм/ч
давл.,
гПа
погр.,
м
29 сентября, чт
чт2901:00+23ссз1299100 6.4 100484
04:00+23юз1399100 1.0 1003120
07:00+23зюз1399100 5.4 1004135
10:00+24зюз1496100 5.6 1005170
13:00+24зсз2695100 9.3 1004291
16:00+24з2795100 2.4 1003419
19:00+23з1397100 7.1 1005103
22:00+24зюз269498 2.7 1007152
30 сентября, пт
пт3001:00+23зсз129668 4.5 100678
04:00+23ююв019791 3.6 100655
07:00+23ююв029792 6.8 100881
10:00+28юз2482100 2.6 10091010
13:00+28ююз347767 4.5 1007925
16:00+26ююз258765 1.8 1006552
19:00+24ю1294100 3.6 100839
22:00+23юв1297100 1.6 100947
1 октября, сб
сб101:00+24юв1297100 4.3 100862
04:00+23ююв1399100 3.6 1007136
07:00+24зюз129771 6.3 1008107
10:00+25юз1395100 3.1 1010279
13:00+25юз1292100 4.4 1008258
16:00+28юз2476100 0.1 1006862
19:00+24ююз1191100 0.2 100737
22:00+24юв1294100 0.7 100947
2 октября, вс
вс201:00+23юв1197100 2.9 100846
04:00+23вюв1298100 3.6 100671
07:00+23вюв1399100 8.4 1008137
10:00+23юв0199100 10.4 100990
13:00+25ююз0194100 12.6 1007282
16:00+26ююз1290100 1.4 1006333
19:00+24ю1197100 4.9 100750
22:00+23зюз019895 3.6 100837
3 октября, пн
пн301:00+23с1198100 6.1 100740
04:00+23св1198100 2.3 100530
07:00+23в1199100 7.1 100749
10:00+25св1292100 2.1 1008275
13:00+25юв2593100 4.9 1006536
16:00+25ююв3794100 3.3 1005699
19:00+23юв2798100 6.8 1007378
22:00+23юв1399100 7.3 1009155